VK2OU Weather Reports


Display with metric or nautical units.
time (UTC)temp
F
wind
direction
speed
MPH
gust
MPH
rain 1hr
in
rain 24hr
in
rain mn
in
humidity
%
barometer
mb
20260904183523 50 264 2.0 7.0 0.00 0.00 0.00 86
20260904182531 50 256 2.0 5.0 0.00 0.00 0.00 86
20260904181524 50 262 3.0 9.0 0.00 0.00 0.00 86
20260904180531 50 281 2.0 7.0 0.00 0.00 0.00 86
20260904175523 50 268 2.0 6.0 0.00 0.00 0.00 86
20260904174531 50 274 3.0 7.0 0.00 0.00 0.00 85
20260904173523 51 274 4.0 8.0 0.00 0.00 0.00 85
20260904172551 51 280 6.0 11.0 0.00 0.00 0.00 85
20260904171524 51 283 5.0 11.0 0.00 0.00 0.00 85
20260904170531 51 280 6.0 10.0 0.00 0.00 0.00 85
20260904165523 51 271 5.0 9.0 0.00 0.00 0.00 85
20260904164530 50 284 5.0 11.0 0.00 0.00 0.00 85
20260904163539 50 280 5.0 10.0 0.00 0.00 0.00 86
20260904162531 50 274 4.0 8.0 0.00 0.00 0.00 86
20260904161523 50 276 4.0 9.0 0.00 0.00 0.00 87
20260904160531 49 278 4.0 10.0 0.00 0.00 0.00 88
20260904155523 49 270 4.0 7.0 0.00 0.00 0.00 89
20260904154531 49 275 4.0 10.0 0.00 0.00 0.00 91
20260904153523 48 278 3.0 10.0 0.00 0.00 0.00 92
20260904152531 48 253 1.0 5.0 0.00 0.00 0.00 91
20260904151603 49 276 2.0 5.0 0.00 0.00 0.00 91
20260904150551 49 264 2.0 2.0 0.00 0.00 0.00 90
20260904145522 49 275 2.0 8.0 0.00 0.00 0.00 90
20260904144533 49 296 3.0 7.0 0.00 0.00 0.00 90
20260904143523 49 282 4.0 8.0 0.00 0.00 0.00 90
20260904142530 49 283 4.0 10.0 0.00 0.00 0.00 90
20260904141523 49 280 4.0 8.0 0.00 0.00 0.00 90
20260904140531 49 286 4.0 9.0 0.00 0.00 0.00 90
20260904135523 49 279 2.0 7.0 0.00 0.00 0.00 90
20260904134531 50 276 3.0 10.0 0.00 0.00 0.00 89
20260904133523 50 282 5.0 8.0 0.00 0.00 0.00 90
20260904132531 49 267 3.0 9.0 0.00 0.00 0.00 91
20260904131523 49 258 2.0 5.0 0.00 0.00 0.00 92
20260904130531 49 283 2.0 5.0 0.00 0.00 0.00 92
20260904125527 49 255 1.0 3.0 0.00 0.00 0.00 92
20260904124531 49 273 2.0 7.0 0.00 0.00 0.00 91
20260904123523 49 234 0.0 2.0 0.00 0.00 0.00 90
20260904122531 50 264 2.0 3.0 0.00 0.00 0.00 89
20260904121523 50 278 3.0 6.0 0.00 0.00 0.00 89
20260904120531 50 278 3.0 6.0 0.00 0.00 0.00 88
20260904115523 50 276 3.0 8.0 0.00 0.00 0.00 88
20260904114552 50 267 3.0 7.0 0.00 0.00 0.00 88
20260904113523 50 271 4.0 9.0 0.00 0.00 0.00 87
20260904112531 50 272 3.0 6.0 0.00 0.00 0.00 87
20260904111603 50 275 3.0 9.0 0.00 0.00 0.00 86
20260904110531 50 272 2.0 5.0 0.00 0.00 0.00 85
20260904105523 50 277 2.0 5.0 0.00 0.00 0.00 85
20260904104531 50 260 2.0 6.0 0.00 0.00 0.00 84
20260904103523 51 270 3.0 7.0 0.00 0.00 0.00 83
20260904102531 51 284 3.0 9.0 0.00 0.00 0.00 82
20260904101523 51 282 4.0 10.0 0.00 0.00 0.00 81
20260904100531 51 261 4.0 9.0 0.00 0.00 0.00 82
20260904095523 51 244 2.0 6.0 0.00 0.00 0.00 81
20260904094530 51 257 2.0 6.0 0.00 0.00 0.00 80
20260904093523 51 273 3.0 6.0 0.00 0.00 0.00 79
20260904092531 52 278 4.0 8.0 0.00 0.00 0.00 79
20260904091523 52 280 5.0 9.0 0.00 0.00 0.00 78
20260904090531 52 275 3.0 7.0 0.00 0.00 0.00 76
20260904085523 52 282 4.0 9.0 0.00 0.00 0.00 75
20260904084531 53 268 5.0 13.0 0.00 0.00 0.00 74
20260904083540 53 266 5.0 10.0 0.00 0.00 0.00 73
20260904082531 53 273 6.0 13.0 0.00 0.00 0.00 72
20260904081524 53 283 6.0 11.0 0.00 0.00 0.00 71
20260904080531 54 269 4.0 9.0 0.00 0.00 0.00 70
20260904075523 54 279 6.0 10.0 0.00 0.00 0.00 68
20260904074553 54 278 6.0 14.0 0.00 0.00 0.00 67
20260904073523 55 273 5.0 9.0 0.00 0.00 0.00 66
20260904072531 55 271 4.0 10.0 0.00 0.00 0.00 65
20260904071523 55 273 4.0 11.0 0.00 0.00 0.00 63
20260904070531 56 250 3.0 8.0 0.00 0.00 0.00 61
20260904065523 57 277 6.0 13.0 0.00 0.00 0.00 58
20260904064531 57 266 5.0 13.0 0.00 0.00 0.00 59
20260904063523 55 272 5.0 13.0 0.00 0.00 0.00 62
20260904062531 56 260 5.0 13.0 0.00 0.00 0.00 61
20260904061543 57 276 6.0 14.0 0.00 0.00 0.00 59
20260904060531 57 261 3.0 9.0 0.00 0.00 0.00 58
20260904055524 58 277 3.0 5.0 0.00 0.00 0.00 57
20260904054532 60 250 3.0 9.0 0.00 0.00 0.00 55
20260904053523 60 279 6.0 10.0 0.00 0.00 0.00 55
20260904052531 59 276 7.0 18.0 0.00 0.00 0.00 54
20260904051603 57 255 5.0 11.0 0.00 0.00 0.00 58
20260904050531 59 275 7.0 15.0 0.00 0.00 0.00 55
20260904045523 59 290 7.0 15.0 0.00 0.00 0.00 54
20260904044531 59 266 6.0 13.0 0.00 0.00 0.00 55
20260904043523 60 266 5.0 14.0 0.00 0.00 0.00 52
20260904042531 60 258 6.0 13.0 0.00 0.00 0.00 51
20260904041543 60 285 5.0 14.0 0.00 0.00 0.00 52
20260904040531 60 262 7.0 16.0 0.00 0.00 0.00 52
20260904035523 60 262 8.0 16.0 0.00 0.00 0.00 51
20260904034552 60 276 7.0 13.0 0.00 0.00 0.00 51
20260904033523 60 255 5.0 13.0 0.00 0.00 0.00 52
20260904032531 59 265 5.0 13.0 0.00 0.00 0.00 52
20260904031524 60 276 7.0 14.0 0.00 0.00 0.00 53
20260904030532 59 271 6.0 14.0 0.00 0.00 0.00 53
20260904025523 60 268 8.0 17.0 0.00 0.00 0.00 53
20260904024532 59 276 7.0 13.0 0.00 0.00 0.00 56
20260904023524 59 282 6.0 17.0 0.00 0.00 0.00 56
20260904022531 59 287 6.0 13.0 0.00 0.00 0.00 55
20260904021523 58 272 6.0 13.0 0.00 0.00 0.00 55
20260904020531 60 272 8.0 16.0 0.00 0.00 0.00 55
20260904015523 58 259 7.0 15.0 0.00 0.00 0.00 60
20260904014536 58 262 8.0 17.0 0.00 0.00 0.00 59
20260904013544 56 267 5.0 11.0 0.00 0.00 0.00 64
20260904012553 56 266 5.0 10.0 0.00 0.00 0.00 67
20260904011524 56 279 4.0 10.0 0.00 0.00 0.00 68
20260904010531 56 272 4.0 8.0 0.00 0.00 0.00 66
20260904005524 55 262 3.0 8.0 0.00 0.00 0.00 69
20260904004532 55 262 3.0 8.0 0.00 0.00 0.00 71
20260904003524 54 276 4.0 8.0 0.00 0.00 0.00 75
20260904002531 55 282 4.0 9.0 0.00 0.00 0.00 73
20260904001549 54 255 2.0 6.0 0.00 0.00 0.00 77
20260904000531 53 271 5.0 10.0 0.00 0.00 0.00 80
20260903235523 52 283 4.0 9.0 0.00 0.00 0.00 81
20260903234551 52 279 3.0 7.0 0.00 0.00 0.00 82
20260903233524 52 287 4.0 9.0 0.00 0.00 0.00 81
20260903232532 51 295 3.0 6.0 0.00 0.00 0.00 86
20260903231524 50 267 5.0 9.0 0.00 0.00 0.00 86
20260903230611 50 276 4.0 7.0 0.00 0.00 0.00 91
20260903225524 48 266 2.0 6.0 0.00 0.00 0.00 95
20260903224532 47 259 2.0 5.0 0.00 0.00 0.00 97
20260903223524 47 262 3.0 6.0 0.00 0.00 0.00 98
20260903222532 46 276 1.0 5.0 0.00 0.00 0.00 98
20260903221524 45 269 0.0 2.0 0.00 0.00 0.00 99
20260903220532 45 272 0.0 2.0 0.00 0.00 0.00 99
20260903215524 44 0.0 0.0 0.00 0.00 0.00 99
20260903214533 43 0.0 0.0 0.00 0.00 0.00 99
20260903213523 43 165 0.0 1.0 0.00 0.00 0.00 99
20260903212551 43 0.0 0.0 0.00 0.00 0.00 98
20260903211604 43 0.0 0.0 0.00 0.00 0.00 98
20260903210532 43 353 0.0 2.0 0.00 0.00 0.00 99
20260903205523 43 0.0 0.0 0.00 0.00 0.00 99
20260903204532 43 0.0 0.0 0.00 0.00 0.00 99
20260903203544 42 0.0 0.0 0.00 0.00 0.00 98
20260903202531 42 0.0 0.0 0.00 0.00 0.00 98
20260903201524 42 217 0.0 2.0 0.00 0.00 0.00 98
20260903200532 42 247 1.0 3.0 0.00 0.00 0.00 98
20260903195524 42 181 0.0 2.0 0.00 0.00 0.00 98
20260903194532 42 175 1.0 2.0 0.00 0.00 0.00 98
20260903193524 41 174 0.0 1.0 0.00 0.00 0.00 98
20260903192533 41 199 0.0 1.0 0.00 0.00 0.00 98
20260903191524 40 205 0.0 2.0 0.00 0.00 0.00 98
20260903190552 40 187 0.0 2.0 0.00 0.00 0.00 97
20260903185524 40 201 0.0 2.0 0.00 0.00 0.00 97
20260903184532 39 175 0.0 2.0 0.00 0.00 0.00 97